1498802400.5,41287,15.94,73264.5,6.79,0.91,-1.95,0,*65
1498802401.75,41288,15.94,73270.0,6.75,1.25,-2.51,0,*53
1498802402.93,41289,15.94,73270.8,6.75,1.01,-3.95,0,*5D
1498802404.13,41290,15.94,73262.0,6.75,0.51,-5.43,0,*6C
1498802405.34,41291,15.94,73244.3,6.73,-0.33,-7.53,0,*41
1498802406.56,41292,15.94,73244.8,6.71,-1.13,-9.01,0,*7A
1498802407.75,41293,15.94,73246.0,6.69,-0.03,-8.63,0,*77
1498802408.95,41294,15.94,73236.5,6.67,-0.81,-10.09,0,*71
1498802410.18,41295,15.94,73234.8,6.63,-1.13,-10.93,0,*4D
1498802411.42,41296,15.94,73240.0,6.63,-0.85,-10.63,0,*7F
1498802412.67,41297,15.94,73242.5,6.61,-1.47,-11.41,0,*42
1498802413.86,41298,15.94,73248.8,6.59,-3.23,-13.47,0,*42
1498802415.05,41299,15.94,73262.5,6.59,-2.91,-13.23,0,*49
1498802416.32,41300,15.94,73244.3,6.53,-3.71,-13.87,0,*43
1498802417.52,41301,15.94,73238.0,6.49,-3.91,-13.93,0,*42
1498802418.71,41302,15.94,73232.5,6.49,-4.53,-14.23,0,*44
1498802419.96,41303,15.94,73230.5,6.45,-5.23,-14.97,0,*40
1498802421.21,41304,15.94,73224.3,6.41,-5.31,-14.93,0,*44
1498802422.43,41305,15.94,73226.5,6.41,-4.25,-13.83,0,*47
1498802423.62,41306,15.94,73218.8,6.37,-4.57,-14.15,0,*48
1498802424.84,41307,15.94,73226.8,6.37,-4.21,-13.79,0,*45
1498802426.06,41308,15.94,73238.5,6.35,-4.45,-14.23,0,*42
1498802427.33,41309,15.94,73246.5,6.35,-5.11,-15.21,0,*40
1498802428.55,41310,15.94,73252.5,6.29,-5.85,-15.95,0,*47
1498802429.8,41311,15.94,73240.0,6.27,-6.27,-16.93,0,*46
1498802431.02,41312,15.94,73246.8,6.25,-7.23,-17.93,0,*43
1498802432.3,41313,15.94,73244.5,6.23,-7.43,-18.35,0,*41
1498802433.55,41314,15.94,73238.8,6.19,-8.07,-19.23,0,*46
1498802434.81,41315,15.94,73238.0,6.17,-9.71,-21.53,0,*45
1498802436.06,41316,15.94,73238.8,6.15,-10.75,-22.73,0,*79
1498802437.29,41317,15.94,73224.8,6.07,-11.15,-23.29,0,*72
1498802438.57,41318,15.94,73220.0,6.05,-11.77,-24.21,0,*74
1498802439.8,41319,15.94,73208.0,6.03,-12.53,-24.97,0,*7B
1498802441.04,41320,15.94,73228.0,6.01,-12.97,-25.13,0,*76
1498802442.29,41321,15.94,73226.0,5.97,-12.79,-24.61,0,*7F
1498802443.53,41322,15.94,73228.3,5.99,-13.23,-24.87,0,*74
1498802444.78,41323,15.94,73232.3,5.97,-12.89,-24.11,0,*75
1498802446.05,41324,15.94,73246.3,5.97,-12.71,-23.95,0,*7E
1498802447.28,41325,15.94,73240.3,5.95,-13.01,-24.61,0,*77
1498802448.54,41326,15.94,73238.0,5.93,-12.47,-24.15,0,*72
1498802449.82,41327,15.94,73238.5,5.93,-12.35,-24.25,0,*75
1498802451.08,41328,15.94,73230.8,5.93,-12.39,-24.41,0,*74
1498802452.37,41329,15.94,73232.0,5.93,-13.61,-25.75,0,*7F
1498802453.65,41330,15.94,73232.8,5.93,-13.79,-26.13,0,*7D
1498802454.89,41331,15.94,73228.5,5.91,-13.93,-26.13,0,*7A
1498802456.14,41332,15.94,73214.8,5.89,-15.63,-28.05,0,*70
1498802457.4,41333,15.94,73210.5,5.89,-16.17,-28.85,0,*79
1498802458.63,41334,15.94,73210.5,5.83,-16.31,-28.75,0,*7F
1498802459.88,41335,15.94,73208.3,5.79,-16.23,-28.43,0,*7D
1498802461.09,41336,15.94,73204.5,5.79,-16.23,-27.93,0,*7C
1498802462.34,41337,15.94,73220.5,5.79,-16.51,-27.83,0,*79
1498802463.54,41338,15.94,73220.3,5.79,-16.41,-27.13,0,*7E
1498802464.73,41339,15.94,73206.5,5.79,-16.97,-27.29,0,*7D
1498802465.96,41340,15.94,73212.8,5.75,-17.49,-27.35,0,*70
1498802467.18,41341,15.94,73216.8,5.75,-18.65,-28.09,0,*70
1498802468.4,41342,15.94,73222.5,5.73,-18.45,-27.51,0,*75
1498802469.62,41343,15.94,73220.8,5.71,-19.13,-27.61,0,*77
1498802470.87,41344,15.94,73228.0,5.67,-19.61,-27.45,0,*74
1498802472.08,41345,15.94,73234.5,5.67,-19.81,-27.03,0,*79
1498802473.32,41346,15.94,73238.3,5.61,-20.69,-27.39,0,*79
1498802474.55,41347,15.94,73248.5,5.59,-19.99,-25.97,0,*70
1498802475.81,41348,15.94,73248.3,5.57,-20.59,-25.97,0,*77
1498802477.04,41349,15.94,73248.8,5.53,-20.35,-25.45,0,*77
1498802478.24,41350,15.94,73252.5,5.53,-20.69,-25.49,0,*7A
1498802479.52,41351,15.94,73236.8,5.51,-21.03,-25.81,0,*70
1498802480.74,41352,15.94,73242.3,5.49,-20.79,-25.61,0,*78
1498802481.96,41353,15.94,73250.0,5.45,-21.13,-26.13,0,*7E
1498802483.16,41354,15.94,73246.3,5.45,-21.09,-26.39,0,*7A
1498802484.38,41355,15.94,73232.8,5.45,-21.39,-26.77,0,*72
1498802485.66,41356,15.94,73226.8,5.43,-21.33,-26.77,0,*7D
1498802486.88,41357,15.94,73232.0,5.43,-21.47,-26.61,0,*78
1498802488.12,41358,15.94,73244.8,5.43,-21.57,-26.49,0,*7C
1498802489.34,41359,15.94,73240.3,5.43,-21.63,-26.49,0,*7A
1498802490.57,41360,15.94,73252.0,5.41,-21.77,-26.81,0,*73
1498802491.79,41361,15.94,73258.8,5.41,-22.27,-27.19,0,*74
1498802493.01,41362,15.94,73258.0,5.43,-22.87,-27.67,0,*76
1498802494.28,41363,15.94,73266.5,5.43,-23.19,-27.83,0,*7B
1498802495.51,41364,15.94,73264.5,5.41,-23.29,-27.67,0,*77
1498802496.73,41365,15.94,73268.5,5.41,-23.39,-27.35,0,*70
1498802497.96,41366,15.94,73270.3,5.41,-23.53,-27.29,0,*72
1498802499.23,41367,15.94,73256.0,5.43,-23.65,-26.97,0,*70
1498802500.48,41368,15.94,73258.5,5.41,-23.99,-26.97,0,*7E
1498802501.71,41369,15.94,73262.0,5.41,-24.25,-26.87,0,*7E
1498802502.94,41370,15.94,73264.0,5.41,-24.21,-26.65,0,*7E
1498802504.14,41371,15.94,73262.0,5.41,-24.35,-26.23,0,*78
1498802505.37,41372,15.94,73272.5,5.41,-24.35,-25.97,0,*77
1498802506.57,41373,15.94,73272.3,5.41,-24.57,-25.87,0,*73
1498802507.76,41374,15.94,73258.3,5.41,-25.35,-26.49,0,*70
1498802508.98,41375,15.94,73266.5,5.41,-25.19,-26.13,0,*70
1498802510.17,41376,15.94,73272.0,5.41,-25.19,-26.03,0,*72
1498802511.42,41377,15.94,73276.3,5.37,-25.29,-26.17,0,*74
1498802512.65,41378,15.94,73268.0,5.37,-24.61,-25.55,0,*73
1498802513.88,41379,15.94,73282.0,5.37,-24.11,-24.61,0,*73
1498802515.11,41380,15.94,73270.5,5.37,-24.25,-24.05,0,*70
1498802516.35,41381,15.94,73274.8,5.37,-24.71,-23.43,0,*75
1498802517.58,41382,15.94,73254.0,5.35,-26.65,-24.47,0,*70
1498802518.83,41383,15.94,73238.8,5.35,-26.45,-23.33,0,*77
1498802520.03,41384,15.94,73246.8,5.33,-25.65,-21.43,0,*72
1498802521.26,41385,15.94,73250.3,5.31,-25.49,-20.59,0,*75
1498802522.51,41386,15.94,73248.3,5.31,-24.41,-18.69,0,*77
1498802523.77,41387,15.94,73270.8,5.31,-23.39,-17.07,0,*79
1498802524.99,41388,15.94,73266.8,5.29,-19.65,-13.23,0,*7D
1498802526.19,41389,15.94,73272.8,5.29,-16.03,-10.19,0,*79
1498802527.44,41390,15.94,73294.0,5.31,-12.53,-9.05,0,*4C
1498802528.68,41391,15.94,73290.0,5.29,-11.97,-9.61,0,*4D
1498802529.87,41392,15.94,73298.3,5.29,-12.39,-8.93,0,*45
1498802531.07,41393,15.94,73300.3,5.33,-13.55,-8.89,0,*4F
1498802532.26,41394,15.94,73290.0,5.33,-15.95,-9.97,0,*4C
1498802533.49,41395,15.94,73280.5,5.35,-16.41,-9.71,0,*49
1498802534.71,41396,15.94,73270.5,5.35,-16.89,-9.75,0,*4A
1498802535.98,41397,15.94,73252.3,5.35,-16.69,-9.49,0,*4A
1498802537.2,41398,15.94,73262.3,5.33,-16.69,-9.75,0,*4C
1498802538.45,41399,15.94,73268.3,5.35,-16.23,-9.71,0,*41
1498802539.66,41400,15.94,73254.5,5.33,-15.39,-9.19,0,*46
1498802540.88,41401,15.94,73246.8,5.33,-14.55,-8.89,0,*44
1498802542.08,41402,15.94,73272.8,5.33,-14.23,-8.93,0,*4D
1498802543.3,41403,15.94,73268.0,5.35,-13.07,-8.21,0,*42
1498802544.52,41404,15.94,73258.5,5.35,-13.11,-8.75,0,*43
1498802545.74,41405,15.94,73228.8,5.35,-12.97,-8.93,0,*45
1498802546.95,41406,15.94,73240.3,5.37,-13.51,-10.23,0,*7D
1498802548.14,41407,15.94,73218.8,5.37,-13.43,-10.85,0,*73
1498802549.37,41408,15.94,73198.3,5.37,-13.43,-11.59,0,*7C
1498802550.59,41409,15.94,73234.0,5.37,-12.29,-11.33,0,*7C
1498802551.82,41410,15.94,73248.0,5.41,-11.29,-10.93,0,*7D
1498802553.07,41411,15.94,73242.8,5.37,-11.77,-11.93,0,*77
1498802554.29,41412,15.94,73230.8,5.41,-11.89,-12.97,0,*73
1498802555.49,41413,15.94,73238.5,5.37,-12.47,-14.19,0,*72
1498802556.74,41414,15.94,73258.3,5.37,-11.81,-14.51,0,*70
1498802557.96,41415,15.94,73256.8,5.37,-12.57,-16.37,0,*7B
1498802559.18,41416,15.94,73270.5,5.37,-12.35,-16.93,0,*72
1498802560.4,41417,15.94,73250.5,5.41,-12.15,-17.49,0,*76
1498802561.6,41418,15.94,73250.8,5.41,-13.47,-19.95,0,*70
1498802562.85,41419,15.94,73246.3,5.41,-13.29,-20.53,0,*79
1498802564.05,41420,15.94,73256.0,5.41,-14.11,-22.07,0,*7C
1498802565.28,41421,15.94,73274.8,5.37,-14.05,-22.37,0,*7A
1498802566.5,41422,15.94,73262.3,5.41,-14.97,-23.43,0,*71
1498802567.72,41423,15.94,73264.3,5.41,-15.71,-24.11,0,*79
1498802568.94,41424,15.94,73272.5,5.37,-16.23,-24.77,0,*7B
1498802570.17,41425,15.94,73268.0,5.37,-17.21,-25.39,0,*72
1498802571.37,41426,15.94,73254.8,5.41,-18.17,-26.07,0,*74
1498802572.59,41427,15.94,73270.0,5.41,-18.73,-26.55,0,*70
1498802573.79,41428,15.94,73270.5,5.37,-18.49,-25.87,0,*7B
1498802575.02,41429,15.94,73280.5,5.37,-19.27,-26.07,0,*78
1498802576.22,41430,15.94,73286.5,5.37,-19.07,-25.87,0,*79
1498802577.45,41431,15.94,73264.3,5.37,-19.23,-26.23,0,*73
1498802578.67,41432,15.94,73260.5,5.37,-19.85,-26.23,0,*7C
1498802579.89,41433,15.94,73250.5,5.35,-20.69,-26.61,0,*71
1498802581.12,41434,15.94,73284.0,5.33,-20.93,-25.97,0,*7F
1498802582.32,41435,15.94,73284.3,5.33,-21.47,-26.07,0,*7C
1498802583.54,41436,15.94,73286.3,5.33,-21.57,-25.23,0,*7B
1498802584.81,41437,15.94,73282.8,5.31,-21.33,-24.15,0,*7E
1498802586.06,41438,15.94,73268.5,5.31,-20.99,-23.43,0,*74
1498802587.32,41439,15.94,73246.3,5.31,-20.89,-23.23,0,*72
1498802588.55,41440,15.94,73244.0,5.29,-20.59,-22.77,0,*78
1498802589.77,41441,15.94,73250.5,5.29,-19.65,-21.47,0,*7C
1498802591.02,41442,15.94,73252.3,5.29,-19.65,-21.03,0,*7F
1498802592.22,41443,15.94,73248.8,5.29,-18.79,-19.51,0,*7E
1498802593.44,41444,15.94,73254.3,5.31,-17.49,-17.49,0,*7B
1498802594.72,41445,15.94,73246.3,5.31,-17.55,-17.03,0,*79
1498802596.0,41446,15.94,73242.0,5.31,-15.85,-14.83,0,*7E
1498802597.28,41447,15.94,73230.0,5.35,-14.05,-12.79,0,*71
1498802598.5,41448,15.94,73234.3,5.41,-12.61,-10.89,0,*74
1498802599.72,41449,15.94,73244.8,5.41,-11.07,-8.93,0,*44
1498802600.93,41450,15.94,73248.3,5.49,-9.67,-7.39,0,*74
1498802602.11,41451,15.94,73250.0,5.53,-8.63,-6.01,0,*71
1498802603.36,41452,15.94,73244.8,5.59,-8.07,-5.03,0,*7B
1498802604.59,41453,15.94,73240.3,5.69,-7.43,-4.41,0,*71
1498802605.82,41454,15.94,73242.3,5.73,-6.81,-3.55,0,*70
1498802607.03,41455,15.94,73246.5,5.79,-6.09,-2.47,0,*79
1498802608.27,41456,15.94,73250.8,5.83,-5.03,-1.13,0,*74
1498802609.48,41457,15.94,73248.3,5.93,-4.65,-0.53,0,*40
1498802610.67,41458,15.94,73240.8,5.99,-4.99,-0.57,0,*42
1498802611.87,41459,15.94,73242.0,6.03,-4.69,-0.29,0,*45
1498802613.11,41460,15.94,73240.0,6.07,-3.59,0.41,0,*6C
1498802614.38,41461,15.94,73238.8,6.13,-1.99,1.17,0,*54
1498802615.59,41462,15.94,73240.8,6.19,-0.81,2.01,0,*61
1498802616.8,41463,15.94,73242.0,6.21,0.17,2.47,0,*4B
1498802617.98,41464,15.94,73246.0,6.29,-0.37,2.31,0,*6A
1498802619.19,41465,15.94,73250.0,6.35,-0.81,2.35,0,*6F
1498802620.43,41466,15.94,73248.8,6.39,-1.47,1.83,0,*55
1498802621.66,41467,15.94,73242.3,6.43,-1.79,1.51,0,*5B
1498802622.91,41468,15.94,73248.5,6.43,-2.07,1.25,0,*5D
1498802624.13,41469,15.94,73234.5,6.47,-2.91,0.41,0,*64
1498802625.36,41470,15.94,73218.8,6.47,-3.79,-0.37,0,*47
1498802626.54,41471,15.94,73218.0,6.49,-4.17,-0.65,0,*40
1498802627.76,41472,15.94,73220.5,6.51,-3.87,-0.33,0,*47
1498802628.94,41473,15.94,73234.5,6.49,-4.29,-0.61,0,*4B
1498802630.13,41474,15.94,73256.0,6.49,-5.35,-1.51,0,*72
1498802631.36,41475,15.94,73250.0,6.51,-4.85,-1.33,0,*74
1498802632.62,41476,15.94,73246.8,6.47,-4.69,-1.05,0,*77
1498802633.85,41477,15.94,73256.5,6.47,-4.73,-1.17,0,*7E
1498802635.09,41478,15.94,73244.0,6.47,-6.69,-2.67,0,*7C
1498802636.34,41479,15.94,73256.8,6.47,-7.43,-3.55,0,*74
1498802637.53,41480,15.94,73262.5,6.45,-7.19,-3.19,0,*77
1498802638.72,41481,15.94,73258.3,6.45,-7.23,-3.39,0,*7D
1498802639.93,41482,15.94,73262.8,6.43,-8.29,-4.53,0,*76
1498802641.12,41483,15.94,73244.8,6.37,-9.93,-5.35,0,*75
1498802642.31,41484,15.94,73250.5,6.37,-10.27,-5.39,0,*49
1498802643.56,41485,15.94,73250.3,6.31,-10.53,-5.27,0,*42
1498802644.81,41486,15.94,73254.8,6.27,-11.07,-5.47,0,*40
1498802646.08,41487,15.94,73244.5,6.27,-11.93,-5.55,0,*4F
1498802647.33,41488,15.94,73238.3,6.25,-12.57,-5.19,0,*41
1498802648.58,41489,15.94,73250.8,6.21,-12.11,-4.69,0,*40
1498802649.83,41490,15.94,73258.8,6.19,-11.33,-3.47,0,*4B
1498802651.03,41491,15.94,73270.8,6.19,-10.35,-2.43,0,*48
1498802652.25,41492,15.94,73274.0,6.19,-9.61,-1.71,0,*70
1498802653.49,41493,15.94,73262.5,6.19,-9.61,-1.47,0,*74
1498802654.71,41494,15.94,73254.0,6.21,-9.79,-1.43,0,*75
1498802655.9,41495,15.94,73272.8,6.19,-9.67,-1.33,0,*77
1498802657.13,41496,15.94,73286.5,6.19,-10.49,-1.91,0,*48
1498802658.36,41497,15.94,73282.3,6.19,-10.63,-2.31,0,*48
1498802659.61,41498,15.94,73260.5,6.17,-10.41,-2.35,0,*4D
1498802660.81,41499,15.94,73240.8,6.15,-10.97,-3.11,0,*42
1498802662.04,41500,15.94,73248.8,6.15,-10.71,-2.99,0,*4A
1498802663.29,41501,15.94,73248.5,6.13,-10.01,-2.55,0,*4A
1498802664.52,41502,15.94,73252.8,6.13,-9.57,-2.43,0,*75
1498802665.73,41503,15.94,73256.5,6.09,-10.05,-2.91,0,*4F
1498802666.95,41504,15.94,73254.3,6.13,-10.19,-2.79,0,*48
1498802668.17,41505,15.94,73258.8,6.09,-9.97,-2.15,0,*76
1498802669.39,41506,15.94,73254.0,6.09,-10.89,-2.91,0,*4E
1498802670.64,41507,15.94,73250.5,6.09,-11.07,-2.91,0,*48
1498802671.87,41508,15.94,73250.3,6.09,-10.93,-3.07,0,*45
1498802673.09,41509,15.94,73232.0,6.05,-10.09,-2.95,0,*41
1498802674.32,41510,15.94,73212.5,6.07,-9.61,-2.95,0,*7D
1498802675.53,41511,15.94,73210.0,6.07,-9.67,-3.43,0,*70
1498802676.79,41512,15.94,73210.3,6.05,-9.83,-3.63,0,*79
1498802677.98,41513,15.94,73204.8,6.07,-9.97,-3.95,0,*76
1498802679.22,41514,15.94,73208.0,6.05,-9.57,-3.75,0,*71
1498802680.42,41515,15.94,73222.8,6.07,-8.45,-2.95,0,*7F
1498802681.69,41516,15.94,73230.5,6.13,-7.69,-2.75,0,*76
1498802682.95,41517,15.94,73230.0,6.13,-8.51,-3.43,0,*77
1498802684.19,41518,15.94,73226.5,6.15,-7.95,-2.67,0,*7E
1498802685.43,41519,15.94,73226.8,6.13,-5.31,-0.53,0,*40
1498802686.67,41520,15.94,73236.5,6.17,-3.23,1.21,0,*52
1498802687.85,41521,15.94,73252.8,6.21,-2.83,1.01,0,*5F
1498802689.05,41522,15.94,73246.3,6.25,-3.03,-0.15,0,*48
1498802690.24,41523,15.94,73242.8,6.25,-2.99,-0.65,0,*4C
1498802691.48,41524,15.94,73244.5,6.29,-3.63,-2.07,0,*75
1498802692.7,41525,15.94,73254.8,6.29,-3.51,-3.79,0,*7D
1498802693.95,41526,15.94,73248.8,6.31,-4.01,-5.43,0,*7A
1498802695.2,41527,15.94,73252.3,6.31,-4.33,-5.69,0,*72
1498802696.44,41528,15.94,73254.8,6.31,-4.49,-5.03,0,*7C
1498802697.67,41529,15.94,73258.3,6.35,-2.87,-3.67,0,*79
1498802698.94,41530,15.94,73264.0,6.31,-2.11,-3.71,0,*7D
1498802700.15,41531,15.94,73266.3,6.35,-1.67,-3.39,0,*76
1498802701.39,41532,15.94,73262.0,6.35,-2.63,-4.17,0,*79
1498802702.63,41533,15.94,73262.8,6.35,-2.75,-3.83,0,*75
1498802703.82,41534,15.94,73262.8,6.37,-2.19,-3.39,0,*7B
1498802705.02,41535,15.94,73266.3,6.37,-0.89,-2.27,0,*4F
1498802706.23,41536,15.94,73264.8,6.37,-0.03,-2.07,0,*7C
1498802707.42,41537,15.94,73266.8,6.37,0.33,-2.27,0,*61
1498802708.64,41538,15.94,73266.3,6.37,0.21,-3.43,0,*6E
1498802709.81,41539,15.94,73268.3,6.37,0.09,-4.09,0,*5C
1498802711.03,41540,15.94,73276.3,6.35,-0.81,-6.51,0,*42
1498802712.28,41541,15.94,73274.8,6.35,-1.87,-8.89,0,*7F
1498802713.49,41542,15.94,73286.5,6.31,-2.35,-8.29,0,*78
1498802714.69,41543,15.94,73284.5,6.29,-3.27,-10.49,0,*4D
1498802715.91,41544,15.94,73282.8,6.29,-4.61,-12.79,0,*4E
1498802717.16,41545,15.94,73276.5,6.27,-5.39,-13.01,0,*43
1498802718.38,41546,15.94,73270.3,6.27,-6.09,-13.47,0,*42
1498802719.61,41547,15.94,73258.5,6.25,-5.61,-12.39,0,*44
1498802720.88,41548,15.94,73258.8,6.23,-5.73,-12.07,0,*43
1498802722.08,41549,15.94,73258.5,6.25,-6.43,-12.25,0,*44
1498802723.31,41550,15.94,73268.8,6.25,-5.89,-11.15,0,*49
1498802724.56,41551,15.94,73272.0,6.23,-5.89,-10.85,0,*46
1498802725.82,41552,15.94,73266.5,6.23,-5.85,-10.31,0,*46
1498802727.07,41553,15.94,73262.8,6.23,-7.23,-11.67,0,*4B
1498802728.3,41554,15.94,73260.8,6.21,-6.59,-10.79,0,*4C
1498802729.53,41555,15.94,73262.0,6.19,-6.19,-10.35,0,*4A
1498802730.76,41556,15.94,73264.5,6.19,-6.47,-10.79,0,*4A
1498802731.97,41557,15.94,73258.5,6.19,-6.35,-10.93,0,*4A
1498802733.19,41558,15.94,73240.0,6.15,-6.51,-11.37,0,*44
1498802734.43,41559,15.94,73248.3,6.15,-5.85,-10.97,0,*44
1498802735.65,41560,15.94,73248.8,6.13,-5.55,-11.15,0,*4E
1498802736.94,41561,15.94,73240.8,6.09,-5.89,-11.89,0,*40
1498802738.16,41562,15.94,73230.3,6.07,-5.61,-12.29,0,*42
1498802739.41,41563,15.94,73240.0,6.05,-5.81,-13.15,0,*41
1498802740.66,41564,15.94,73240.0,6.03,-5.77,-13.83,0,*46
1498802741.91,41565,15.94,73246.3,6.01,-5.61,-14.33,0,*4E
1498802743.16,41566,15.94,73238.3,6.01,-6.01,-15.35,0,*4F
1498802744.44,41567,15.94,73232.0,5.97,-5.93,-15.89,0,*4D
1498802745.69,41568,15.94,73234.0,5.97,-6.09,-16.69,0,*4F
1498802746.9,41569,15.94,73240.8,5.95,-6.09,-17.35,0,*44
1498802748.18,41570,15.94,73236.3,5.93,-5.73,-17.59,0,*4E
1498802749.42,41571,15.94,73236.3,5.89,-6.01,-18.55,0,*41
1498802750.67,41572,15.94,73242.8,5.89,-6.43,-19.31,0,*47
1498802751.91,41573,15.94,73250.3,5.91,-7.19,-20.53,0,*4F
1498802753.18,41574,15.94,73262.0,5.89,-7.91,-21.33,0,*46
1498802754.4,41575,15.94,73250.5,5.83,-8.45,-21.67,0,*4A
1498802755.61,41576,15.94,73246.5,5.83,-8.29,-21.03,0,*41
1498802756.8,41577,15.94,73248.5,5.79,-8.33,-21.13,0,*4F
1498802758.01,41578,15.94,73242.0,5.79,-9.27,-22.21,0,*46
1498802759.21,41579,15.94,73238.3,5.79,-9.71,-22.53,0,*41
1498802760.41,41580,15.94,73244.0,5.75,-10.93,-23.43,0,*7F
1498802761.65,41581,15.94,73238.5,5.73,-11.07,-22.83,0,*79
1498802762.9,41582,15.94,73240.5,5.71,-11.55,-22.47,0,*77
1498802764.15,41583,15.94,73252.3,5.69,-12.39,-22.47,0,*76
1498802765.4,41584,15.94,73246.5,5.69,-12.35,-21.39,0,*77
1498802766.63,41585,15.94,73238.0,5.67,-12.65,-20.89,0,*77
1498802767.82,41586,15.94,73232.3,5.67,-12.39,-19.75,0,*74
1498802769.03,41587,15.94,73238.3,5.67,-12.65,-19.47,0,*7D
1498802770.26,41588,15.94,73236.8,5.67,-13.23,-19.61,0,*75
1498802771.47,41589,15.94,73228.8,5.63,-13.33,-19.03,0,*75
1498802772.69,41590,15.94,73232.3,5.63,-14.01,-18.79,0,*77
1498802773.93,41591,15.94,73242.3,5.61,-14.43,-18.25,0,*7B
1498802775.21,41592,15.94,73242.8,5.61,-14.83,-17.97,0,*72
1498802776.42,41593,15.94,73242.8,5.63,-14.69,-17.21,0,*78
1498802777.66,41594,15.94,73242.8,5.61,-14.05,-16.45,0,*74
1498802778.91,41595,15.94,73244.0,5.61,-14.43,-16.79,0,*78
1498802780.15,41596,15.94,73250.3,5.61,-13.73,-16.31,0,*73
1498802781.4,41597,15.94,73254.3,5.61,-13.47,-16.09,0,*7E
1498802782.62,41598,15.94,73256.3,5.61,-13.55,-16.03,0,*78
1498802783.87,41599,15.94,73250.5,5.61,-14.05,-16.37,0,*7C
1498802785.07,41600,15.94,73248.8,5.61,-14.69,-16.93,0,*7B
1498802786.29,41601,15.94,73256.0,5.61,-14.89,-16.79,0,*70
1498802787.54,41602,15.94,73240.0,5.61,-15.75,-17.41,0,*7B
1498802788.79,41603,15.94,73248.5,5.61,-15.85,-17.35,0,*76
1498802790.06,41604,15.94,73244.8,5.61,-15.85,-17.25,0,*70
1498802791.26,41605,15.94,73246.0,5.59,-15.53,-16.83,0,*7C
1498802792.51,41606,15.94,73244.5,5.57,-15.89,-16.79,0,*73
1498802793.74,41607,15.94,73242.5,5.59,-15.67,-16.09,0,*7B
1498802794.95,41608,15.94,73242.3,5.57,-15.99,-15.95,0,*7D
1498802796.15,41609,15.94,73240.8,5.59,-15.49,-15.07,0,*74
1498802797.38,41610,15.94,73238.3,5.59,-15.81,-15.25,0,*78
1498802798.6,41611,15.94,73244.0,5.59,-15.81,-15.07,0,*79
1498802799.85,41612,15.94,73246.5,5.57,-15.67,-14.47,0,*79
1498802801.07,41613,15.94,73246.5,5.57,-15.67,-13.65,0,*7F
1498802802.32,41614,15.94,73248.3,5.57,-15.39,-12.89,0,*70
1498802803.58,41615,15.94,73248.5,5.57,-15.01,-11.93,0,*72
1498802804.83,41616,15.94,73246.3,5.57,-14.89,-11.81,0,*73
1498802806.05,41617,15.94,73250.0,5.59,-14.37,-11.55,0,*70
1498802807.3,41618,15.94,73260.0,5.59,-13.79,-11.51,0,*76
1498802808.54,41619,15.94,73262.0,5.57,-12.61,-11.23,0,*74
1498802809.76,41620,15.94,73264.5,5.59,-12.03,-11.51,0,*71
1498802811.01,41621,15.94,73258.8,5.59,-11.89,-12.61,0,*71
1498802812.25,41622,15.94,73248.3,5.59,-11.93,-13.19,0,*77
1498802813.5,41623,15.94,73266.3,5.59,-11.93,-13.87,0,*71
1498802814.72,41624,15.94,73268.8,5.59,-11.63,-14.23,0,*70
1498802815.93,41625,15.94,73268.8,5.59,-12.03,-15.25,0,*73
1498802817.18,41626,15.94,73266.3,5.57,-12.35,-15.99,0,*7C
1498802818.37,41627,15.94,73252.0,5.59,-12.03,-15.99,0,*76
1498802819.62,41628,15.94,73266.3,5.61,-11.33,-15.29,0,*79
1498802820.85,41629,15.94,73278.0,5.63,-11.45,-15.35,0,*76
1498802822.1,41630,15.94,73266.3,5.63,-12.35,-16.51,0,*7B
1498802823.32,41631,15.94,73268.0,5.63,-12.35,-15.71,0,*7B
1498802824.51,41632,15.94,73264.8,5.63,-10.49,-13.55,0,*71
1498802825.75,41633,15.94,73268.0,5.69,-9.61,-12.47,0,*4A
1498802826.96,41634,15.94,73270.8,5.73,-10.23,-13.43,0,*7D
1498802828.18,41635,15.94,73270.5,5.75,-11.33,-14.89,0,*7B
1498802829.4,41636,15.94,73268.5,5.77,-10.89,-14.65,0,*78
1498802830.65,41637,15.94,73270.3,5.77,-10.89,-14.83,0,*71
1498802831.87,41638,15.94,73270.3,5.81,-10.15,-14.37,0,*7D
1498802833.11,41639,15.94,73264.3,5.81,-10.23,-14.79,0,*73
1498802834.31,41640,15.94,73264.0,5.83,-9.79,-14.89,0,*47
1498802835.57,41641,15.94,73270.5,5.85,-9.45,-14.93,0,*44
1498802836.78,41642,15.94,73266.3,5.85,-10.09,-16.03,0,*7C
1498802838.01,41643,15.94,73264.5,5.91,-10.57,-16.69,0,*7F
1498802839.26,41644,15.94,73268.0,5.89,-10.15,-16.31,0,*7A
1498802840.49,41645,15.94,73270.0,5.89,-9.79,-15.71,0,*4E
1498802841.71,41646,15.94,73268.0,5.89,-9.67,-15.11,0,*44
1498802842.93,41647,15.94,73274.0,5.91,-9.57,-15.11,0,*4F
1498802844.17,41648,15.94,73276.8,5.89,-8.97,-14.43,0,*42
1498802845.42,41649,15.94,73276.3,5.89,-8.17,-13.87,0,*44
1498802846.68,41650,15.94,73274.5,5.91,-8.07,-14.47,0,*4F
1498802847.92,41651,15.94,73274.8,5.89,-8.03,-15.11,0,*41
1498802849.15,41652,15.94,73272.5,5.91,-9.15,-16.89,0,*4F
1498802850.4,41653,15.94,73258.8,5.89,-9.79,-18.35,0,*44
1498802851.63,41654,15.94,73262.5,5.89,-11.15,-19.75,0,*75
1498802852.87,41655,15.94,73260.5,5.83,-11.37,-20.15,0,*72
1498802854.08,41656,15.94,73260.3,5.83,-12.47,-20.89,0,*70
1498802855.28,41657,15.94,73260.3,5.83,-13.19,-21.09,0,*72
1498802856.52,41658,15.94,73268.5,5.81,-13.79,-21.13,0,*72
1498802857.77,41659,15.94,73266.3,5.79,-13.97,-20.83,0,*7C
1498802858.99,41660,15.94,73262.8,5.79,-15.81,-22.07,0,*79
1498802860.24,41661,15.94,73258.0,5.77,-17.21,-23.09,0,*71
1498802861.49,41662,15.94,73248.3,5.75,-18.01,-23.23,0,*75
1498802862.71,41663,15.94,73250.5,5.75,-19.23,-23.75,0,*76
1498802863.92,41664,15.94,73244.0,5.71,-19.99,-23.95,0,*7A
1498802865.14,41665,15.94,73244.5,5.69,-20.93,-24.47,0,*7A
1498802866.36,41666,15.94,73248.8,5.67,-20.69,-23.85,0,*7B
1498802867.6,41667,15.94,73244.8,5.61,-20.59,-23.53,0,*74
1498802868.84,41668,15.94,73256.8,5.61,-20.73,-23.29,0,*7E
1498802870.04,41669,15.94,73260.3,5.59,-20.63,-22.87,0,*70
1498802871.26,41670,15.94,73260.5,5.59,-21.73,-23.49,0,*7B
1498802872.48,41671,15.94,73252.3,5.57,-21.43,-22.67,0,*7A
1498802873.71,41672,15.94,73250.0,5.59,-22.37,-23.19,0,*7F
1498802874.99,41673,15.94,73236.8,5.57,-22.31,-22.47,0,*7C
1498802876.2,41674,15.94,73238.8,5.53,-22.73,-22.07,0,*7D
1498802877.45,41675,15.94,73236.8,5.51,-22.77,-21.63,0,*7B
1498802878.71,41676,15.94,73228.8,5.51,-23.13,-21.23,0,*7F
1498802879.94,41677,15.94,73222.3,5.49,-23.19,-20.59,0,*71
1498802881.15,41678,15.94,73226.0,5.49,-23.43,-20.15,0,*79
1498802882.38,41679,15.88,73222.5,5.45,-22.53,-18.89,0,*7A
1498802883.59,41680,15.94,73226.0,5.45,-22.83,-18.59,0,*7C
1498802884.84,41681,15.94,73226.5,5.45,-22.31,-17.97,0,*79
1498802886.09,41682,15.94,73222.5,5.41,-21.23,-16.65,0,*72
1498802887.34,41683,15.94,73226.5,5.43,-21.27,-16.59,0,*7A
1498802888.58,41684,15.94,73228.3,5.41,-19.85,-15.01,0,*72
1498802889.8,41685,15.94,73230.8,5.49,-17.45,-13.07,0,*79
1498802891.09,41686,15.94,73234.5,5.51,-16.09,-11.63,0,*7A
1498802892.3,41687,15.94,73228.0,5.59,-15.21,-10.93,0,*74
1498802893.52,41688,15.94,73226.5,5.63,-15.21,-11.01,0,*78
1498802894.71,41689,15.94,73226.3,5.71,-15.49,-11.11,0,*75
1498802895.93,41690,15.94,73224.8,5.77,-15.53,-10.89,0,*70
1498802897.17,41691,15.94,73228.3,5.81,-14.37,-9.61,0,*45
1498802898.44,41692,15.94,73238.5,5.85,-14.05,-9.11,0,*44
1498802899.64,41693,15.94,73246.0,5.95,-13.93,-8.85,0,*40
1498802900.85,41694,15.94,73248.5,5.99,-14.37,-8.85,0,*42
1498802902.1,41695,15.94,73244.3,6.03,-15.39,-9.49,0,*4D
1498802903.33,41696,15.94,73242.5,6.13,-14.93,-8.67,0,*43
1498802904.57,41697,15.94,73234.8,6.17,-15.01,-8.45,0,*4C
1498802905.78,41698,15.94,73236.0,6.21,-14.69,-7.91,0,*4F